EW5925 Weather Reports


time (UTC)temp
F
wind
direction
speed
knots
gust
knots
rain 1hr
in
rain 24hr
in
rain mn
in
humidity
%
barometer
mb
20260902103355 66 324 1.7 4.3 0.00 0.01 0.00 83 1020.6
20260902102827 66 347 1.7 4.3 0.00 0.01 0.00 83 1020.5
20260902102307 66 347 2.6 7.8 0.00 0.01 0.00 83 1020.4
20260902101740 66 10 2.6 7.8 0.00 0.01 0.00 83 1020.5
20260902101214 66 341 1.7 7.8 0.00 0.01 0.00 83 1020.5
20260902100122 66 353 1.7 5.2 0.00 0.01 0.00 82 1020.4
20260902095607 66 342 1.7 5.2 0.00 0.01 0.00 82 1020.4
20260902095025 66 351 2.6 5.2 0.00 0.01 0.00 82 1020.3
20260902094455 67 340 2.6 5.2 0.00 0.01 0.00 82 1020.3
20260902093944 67 354 2.6 5.2 0.00 0.01 0.00 83 1020.2
20260902093440 67 343 2.6 6.1 0.00 0.01 0.00 82 1020.2
20260902092947 67 338 2.6 6.1 0.00 0.01 0.00 82 1020.2
20260902092432 67 2 2.6 4.3 0.00 0.01 0.00 82 1020.2
20260902091925 67 340 2.6 7.0 0.00 0.01 0.00 82 1020.1
20260902091427 67 310 2.6 7.0 0.00 0.01 0.00 82 1020.1
20260902091144 67 341 2.6 7.8 0.00 0.01 0.00 82 1020.0
20260902090416 67 342 2.6 7.8 0.00 0.01 0.00 81 1020.1
20260902085915 67 353 2.6 7.0 0.00 0.01 0.00 81 1020.0
20260902085415 67 355 1.7 7.0 0.00 0.01 0.00 81 1020.0
20260902084914 67 30 1.7 5.2 0.00 0.01 0.00 81 1019.9
20260902084413 67 345 2.6 7.8 0.00 0.01 0.00 80 1019.9
20260902083913 67 23 2.6 7.8 0.00 0.01 0.00 80 1019.9
20260902083415 67 349 2.6 7.8 0.00 0.01 0.00 80 1019.8
20260902082859 68 2 2.6 7.0 0.00 0.01 0.00 80 1019.8
20260902082328 68 344 2.6 7.0 0.00 0.01 0.00 80 1019.8
20260902081830 68 355 2.6 7.0 0.00 0.01 0.00 79 1019.8
20260902081321 68 353 2.6 7.0 0.00 0.01 0.00 79 1019.7
20260902080819 68 339 3.5 7.0 0.00 0.01 0.00 78 1019.7
20260902080313 68 337 3.5 7.0 0.00 0.01 0.00 78 1019.6
20260902075811 69 327 3.5 7.8 0.00 0.01 0.00 77 1019.6
20260902075310 69 0 2.6 7.8 0.00 0.01 0.00 77 1019.5
20260902074807 69 29 2.6 9.6 0.00 0.01 0.00 76 1019.5
20260902074305 69 346 2.6 9.6 0.00 0.01 0.00 76 1019.4
20260902073803 69 353 3.5 9.6 0.00 0.01 0.00 75 1019.4
20260902073301 69 342 2.6 9.6 0.00 0.01 0.00 74 1019.4
20260902072801 70 26 2.6 5.2 0.00 0.01 0.00 73 1019.3
20260902072301 70 357 3.5 11.3 0.00 0.01 0.00 72 1019.2
20260902071759 70 0 4.3 11.3 0.00 0.01 0.00 72 1019.3
20260902071301 70 344 3.5 8.7 0.00 0.01 0.00 71 1019.2
20260902070759 71 10 2.6 8.7 0.00 0.01 0.00 70 1019.2
20260902070259 71 41 2.6 7.0 0.00 0.01 0.00 69 1019.1
20260902070025 71 358 3.5 8.7 0.00 0.01 0.00 69 1019.1
20260902065258 71 6 3.5 8.7 0.00 0.01 0.00 69 1019.1
20260902064759 71 328 1.7 6.1 0.00 0.01 0.00 69 1018.9
20260902064237 71 349 1.7 6.1 0.00 0.01 0.00 69 1019.0
20260902063738 72 43 2.6 7.8 0.00 0.01 0.00 67 1019.0
20260902063210 72 60 2.6 7.8 0.00 0.01 0.00 67 1018.9
20260902062657 72 47 1.7 7.0 0.00 0.01 0.00 66 1018.9
20260902062155 73 79 1.7 7.0 0.00 0.01 0.00 65 1018.9
20260902061655 73 19 2.6 7.0 0.00 0.01 0.00 64 1018.9
20260902061418 73 79 2.6 7.0 0.00 0.01 0.00 62 1018.9
20260902060655 74 46 1.7 6.1 0.00 0.01 0.00 61 1018.8
20260902060155 74 29 1.7 6.1 0.00 0.01 0.00 60 1018.8
20260902055653 74 341 1.7 6.1 0.00 0.01 0.00 60 1018.9
20260902055153 74 38 1.7 7.0 0.00 0.01 0.00 60 1018.9
20260902054654 74 63 2.6 8.7 0.00 0.01 0.00 59 1019.0
20260902054154 74 72 3.5 8.7 0.00 0.01 0.00 58 1019.1
20260902053654 75 13 3.5 8.7 0.00 0.01 0.00 58 1019.1
20260902053153 75 5 3.5 8.7 0.00 0.01 0.00 58 1019.2
20260902052653 75 84 3.5 8.7 0.00 0.01 0.00 57 1019.2
20260902052126 75 355 3.5 11.3 0.00 0.01 0.00 58 1019.2
20260902051626 75 339 3.5 11.3 0.00 0.01 0.00 58 1019.3
20260902051126 75 341 3.5 8.7 0.00 0.01 0.00 59 1019.3
20260902050852 75 66 3.5 8.7 0.00 0.01 0.00 59 1019.3
20260902050125 75 73 2.6 7.8 0.00 0.01 0.00 61 1019.3
20260902045846 75 29 2.6 8.7 0.00 0.01 0.00 60 1019.4
20260902045125 76 62 2.6 8.7 0.00 0.01 0.00 61 1019.4
20260902044841 76 59 2.6 7.8 0.00 0.01 0.00 61 1019.5
20260902044121 76 59 3.5 7.8 0.00 0.01 0.00 61 1019.5
20260902043620 76 51 3.5 8.7 0.00 0.01 0.00 60 1019.6
20260902043120 77 353 2.6 8.7 0.00 0.01 0.00 60 1019.6
20260902042622 77 57 2.6 7.8 0.00 0.01 0.00 60 1019.7
20260902042105 77 70 2.6 7.8 0.00 0.01 0.00 59 1019.7
20260902041605 77 347 2.6 7.0 0.00 0.01 0.00 59 1019.7
20260902041103 77 35 2.6 7.0 0.00 0.01 0.00 59 1019.8
20260902040602 77 22 2.6 7.0 0.00 0.01 0.00 59 1019.8
20260902040115 77 50 3.5 8.7 0.00 0.01 0.00 58 1019.9
20260902035601 77 38 3.5 10.4 0.00 0.01 0.00 56 1020.0
20260902035100 78 327 3.5 10.4 0.00 0.01 0.00 56 1020.0
20260902034601 78 341 3.5 9.6 0.00 0.01 0.00 56 1020.0
20260902034101 77 52 3.5 9.6 0.00 0.01 0.00 55 1020.1
20260902033600 78 351 4.3 8.7 0.00 0.01 0.00 53 1020.1
20260902033059 78 16 4.3 8.7 0.00 0.01 0.00 56 1020.2
20260902032553 78 66 4.3 8.7 0.00 0.01 0.00 53 1020.3
20260902032050 78 342 2.6 7.0 0.00 0.01 0.00 54 1020.4
20260902031549 78 66 2.6 7.0 0.00 0.01 0.00 54 1020.4
20260902031050 79 52 2.6 7.0 0.00 0.01 0.00 53 1020.5
20260902030534 79 20 2.6 7.0 0.00 0.01 0.00 54 1020.6
20260902030034 79 318 2.6 7.0 0.00 0.01 0.00 53 1020.7
20260902025506 78 49 2.6 7.0 0.00 0.01 0.00 55 1020.8
20260902025006 78 24 2.6 6.1 0.00 0.01 0.00 55 1020.9
20260902024503 78 55 1.7 6.1 0.00 0.01 0.00 55 1021.1
20260902024222 78 311 1.7 6.1 0.00 0.01 0.00 56 1021.2
20260902023458 78 31 1.7 6.1 0.00 0.01 0.00 55 1021.3
20260902022959 78 33 2.6 7.0 0.00 0.01 0.00 54 1021.4
20260902022459 78 2 2.6 7.8 0.00 0.01 0.00 54 1021.6
20260902022000 78 8 3.5 7.8 0.00 0.01 0.00 53 1021.6
20260902021457 79 43 2.6 6.1 0.00 0.01 0.00 54 1021.7
20260902020955 79 4 1.7 6.1 0.00 0.01 0.00 53 1021.7
20260902020453 79 29 1.7 4.3 0.00 0.01 0.00 55 1021.8
20260902020217 78 7 1.7 4.3 0.00 0.01 0.00 54 1021.8
20260902015452 78 343 2.6 5.2 0.00 0.01 0.00 54 1021.9
20260902014950 78 356 2.6 6.1 0.00 0.01 0.00 55 1022.1
20260902014448 78 333 2.6 7.0 0.00 0.01 0.00 54 1022.3
20260902013949 78 16 2.6 7.0 0.00 0.01 0.00 54 1022.5
20260902013932 78 335 2.6 7.8 0.00 0.01 0.00 54 1022.6
20260902012950 78 323 1.7 7.8 0.00 0.01 0.00 54 1022.8
20260902012434 77 2 0.9 4.3 0.00 0.01 0.00 53 1022.9
20260902011935 77 262 0.9 4.3 0.00 0.01 0.00 51 1023.0
20260902011418 77 264 0.9 4.3 0.00 0.01 0.00 54 1023.1
20260902010917 77 241 0.9 4.3 0.00 0.01 0.00 54 1023.3
20260902010423 76 216 1.7 4.3 0.00 0.01 0.00 55 1023.4
20260902005910 76 320 1.7 4.3 0.00 0.01 0.00 55 1023.5
20260902005407 76 333 1.7 5.2 0.00 0.01 0.00 57 1023.7
20260902004904 75 8 2.6 6.1 0.00 0.01 0.00 55 1023.7
20260902004403 75 345 1.7 6.1 0.00 0.01 0.00 56 1023.9
20260902003903 75 312 0.9 4.3 0.00 0.01 0.00 59 1024.0
20260902003358 74 251 0.9 4.3 0.00 0.01 0.00 60 1024.0
20260902002858 74 234 1.7 4.3 0.00 0.01 0.00 61 1024.1
20260902002350 73 238 1.7 5.2 0.00 0.01 0.00 61 1024.2
20260902001848 73 238 1.7 5.2 0.00 0.01 0.00 63 1024.2
20260902001346 73 239 1.7 5.2 0.00 0.01 0.00 63 1024.3
20260902001111 72 242 1.7 5.2 0.00 0.01 0.00 64 1024.3
20260902000325 72 222 1.7 4.3 0.00 0.01 0.00 66 1024.4
20260901235753 71 346 1.7 4.3 0.00 0.01 0.00 68 1024.5
20260901235258 71 247 0.9 4.3 0.00 0.01 0.00 69 1024.5
20260901234726 70 318 0.9 4.3 0.00 0.01 0.00 70 1024.6
20260901234425 70 306 1.7 4.3 0.00 0.01 0.00 72 1024.7
20260901233855 69 316 0.9 5.2 0.00 0.01 0.00 73 1024.8
20260901233107 69 353 0.9 4.3 0.00 0.01 0.00 75 1024.8
20260901232539 68 353 0.9 4.3 0.00 0.01 0.00 77 1024.8
20260901232011 67 225 0.9 4.3 0.00 0.01 0.00 79 1024.8
20260901231445 67 328 0.9 4.3 0.00 0.01 0.00 81 1024.8
20260901230931 67 245 0.9 2.6 0.00 0.01 0.00 83 1024.9
20260901230353 65 239 0.9 3.5 0.00 0.01 0.00 86 1024.9
20260901225829 65 226 0.9 3.5 0.00 0.01 0.00 87 1025.0
20260901225324 64 238 0.9 3.5 0.00 0.01 0.00 88 1025.1
20260901224824 63 278 1.7 3.5 0.00 0.01 0.00 90 1025.0
20260901224324 63 243 1.7 3.5 0.00 0.01 0.00 91 1025.1
20260901223824 62 225 1.7 4.3 0.00 0.01 0.00 93 1025.1
20260901223326 61 216 1.7 4.3 0.00 0.01 0.00 94 1025.2
20260901222819 61 240 1.7 4.3 0.00 0.01 0.00 95 1025.2
20260901222542 60 231 1.7 4.3 0.00 0.01 0.00 95 1025.2
20260901222257 60 241 1.7 5.2 0.00 0.02 0.00 95 1025.2
20260901221317 59 235 1.7 5.2 0.00 0.02 0.00 95 1025.1
20260901220816 59 241 0.9 4.3 0.00 0.02 0.00 95 1025.0
20260901220316 59 224 0.9 4.3 0.00 0.02 0.00 95 1025.0
20260901215814 58 195 1.7 3.5 0.00 0.02 0.00 95 1024.9
20260901215316 58 180 1.7 2.6 0.00 0.02 0.00 95 1024.9
20260901215231 57 175 0.9 3.5 0.00 0.02 0.00 95 1024.9
20260901214227 56 150 0.9 3.5 0.00 0.02 0.00 95 1024.8
20260901213728 55 205 0.9 3.5 0.00 0.02 0.00 95 1024.8
20260901213446 54 245 0.0 3.5 0.00 0.02 0.00 95 1024.7
20260901212725 53 246 0.0 1.7 0.00 0.02 0.00 95 1024.6
20260901212451 53 246 0.0 0.9 0.00 0.02 0.00 94 1024.5
20260901211720 52 246 0.0 0.0 0.00 0.02 0.00 94 1024.5
20260901211216 52 246 0.0 0.0 0.00 0.02 0.00 94 1024.4
20260901210716 51 247 0.0 0.0 0.00 0.02 0.00 94 1024.4
20260901210216 51 247 0.0 0.0 0.00 0.02 0.00 94 1024.4
20260901205714 51 247 0.0 0.0 0.00 0.02 0.00 93 1024.4
20260901205213 51 247 0.0 0.0 0.00 0.02 0.00 93 1024.3
20260901204710 50 247 0.0 0.0 0.00 0.02 0.00 93 1024.3
20260901204209 50 247 0.0 0.0 0.00 0.02 0.00 93 1024.3
20260901203706 50 247 0.0 0.0 0.00 0.02 0.00 93 1024.3
20260901203204 50 247 0.0 0.0 0.00 0.02 0.00 93 1024.2
20260901202658 50 247 0.0 0.9 0.00 0.02 0.00 93 1024.2
20260901202158 50 247 0.0 0.9 0.00 0.02 0.00 93 1024.2
20260901201653 50 247 0.0 0.9 0.00 0.02 0.00 93 1024.2
20260901201423 50 247 0.0 0.9 0.00 0.02 0.00 93 1024.3
20260901200653 51 247 0.0 0.9 0.00 0.02 0.00 93 1024.1
20260901200151 51 247 0.0 0.9 0.00 0.02 0.00 93 1024.0
20260901195652 51 247 0.0 1.7 0.00 0.02 0.00 93 1024.0
20260901195149 51 247 0.0 1.7 0.00 0.02 0.00 93 1024.1
20260901194647 51 247 0.0 1.7 0.00 0.02 0.00 93 1024.0
20260901194148 51 247 0.0 1.7 0.00 0.02 0.00 93 1024.1
20260901193645 51 247 0.0 0.9 0.00 0.02 0.00 93 1024.0
20260901193146 51 247 0.0 0.9 0.00 0.02 0.00 93 1024.0
20260901193132 51 247 0.0 0.0 0.00 0.02 0.00 93 1023.9
20260901192411 51 247 0.0 0.0 0.00 0.02 0.00 93 1023.9
20260901191645 52 247 0.0 0.0 0.00 0.02 0.00 93 1023.8
20260901191146 52 247 0.0 0.0 0.00 0.02 0.00 93 1023.8
20260901191134 52 247 0.0 0.0 0.00 0.02 0.00 93 1023.7
20260901190141 52 247 0.0 1.7 0.00 0.02 0.00 93 1023.6
20260901185640 52 247 0.0 1.7 0.00 0.02 0.00 93 1023.7
20260901185142 52 247 0.0 1.7 0.00 0.02 0.00 93 1023.6
20260901184642 52 247 0.0 1.7 0.00 0.02 0.00 93 1023.7
20260901184141 52 247 0.0 1.7 0.00 0.02 0.00 93 1023.7
20260901183835 52 247 0.0 1.7 0.00 0.02 0.00 93 1023.7
20260901183106 52 247 0.0 1.7 0.00 0.02 0.00 93 1023.6
20260901182605 51 247 0.0 4.3 0.00 0.02 0.00 93 1023.7
20260901182106 51 247 0.0 4.3 0.00 0.02 0.00 93 1023.6
20260901181600 51 247 0.9 4.3 0.00 0.02 0.00 93 1023.6
20260901181059 51 247 0.9 4.3 0.00 0.02 0.00 93 1023.6
20260901180600 50 241 0.9 4.3 0.00 0.02 0.00 93 1023.5
20260901180109 50 175 0.0 3.5 0.00 0.02 0.00 92 1023.5
20260901175833 50 153 0.0 0.9 0.00 0.02 0.00 92 1023.5
20260901175057 50 153 0.0 0.9 0.00 0.02 0.00 92 1023.5
20260901174557 50 153 0.0 0.9 0.00 0.02 0.00 92 1023.5
20260901174058 50 153 0.0 0.9 0.00 0.02 0.00 92 1023.6
20260901173821 50 153 0.0 0.9 0.00 0.02 0.00 92 1023.5
20260901173053 50 153 0.0 0.9 0.00 0.02 0.00 92 1023.5
20260901172808 50 153 0.0 0.9 0.00 0.02 0.00 92 1023.6
20260901172053 50 153 0.0 0.0 0.00 0.02 0.00 92 1023.6
20260901171538 50 153 0.0 0.0 0.00 0.02 0.00 92 1023.7
20260901171037 50 153 0.0 0.0 0.00 0.02 0.00 92 1023.8
20260901170526 50 153 0.0 0.0 0.00 0.02 0.00 92 1023.8
20260901170025 51 153 0.0 0.0 0.00 0.02 0.00 92 1023.9
20260901165743 51 153 0.0 0.0 0.00 0.02 0.00 92 1023.9
20260901165023 51 153 0.0 0.0 0.00 0.02 0.00 92 1024.0
20260901164521 51 153 0.0 0.0 0.00 0.02 0.00 92 1024.1
20260901164226 51 153 0.0 0.0 0.00 0.02 0.00 91 1024.2
20260901164112 51 153 0.0 0.0 0.00 0.02 0.00 92 1024.2
20260901163016 51 153 0.0 0.9 0.00 0.02 0.00 91 1024.3
20260901162515 51 153 0.0 0.9 0.00 0.02 0.00 91 1024.3
20260901162012 51 153 0.0 0.0 0.00 0.02 0.00 91 1024.4
20260901161510 51 153 0.0 0.9 0.00 0.02 0.00 91 1024.4
20260901161008 51 153 0.0 0.9 0.00 0.02 0.00 91 1024.4
20260901160507 51 153 0.0 0.9 0.00 0.02 0.00 91 1024.5
20260901160228 51 153 0.0 0.9 0.00 0.02 0.00 91 1024.6
20260901155502 51 153 0.0 0.9 0.00 0.02 0.00 91 1024.5
20260901155000 51 153 0.0 0.9 0.00 0.02 0.00 91 1024.6
20260901154457 51 153 0.0 0.0 0.00 0.02 0.00 91 1024.5
20260901154220 51 153 0.0 0.9 0.00 0.02 0.00 91 1024.5
20260901153430 51 153 0.0 0.9 0.00 0.02 0.00 91 1024.5
20260901153140 51 153 0.0 0.9 0.00 0.02 0.00 91 1024.6
20260901152429 52 153 0.0 0.9 0.00 0.02 0.00 91 1024.5
20260901151913 52 153 0.0 0.9 0.00 0.02 0.00 91 1024.5
20260901151412 52 153 0.0 0.9 0.00 0.02 0.00 91 1024.7
20260901150912 52 153 0.0 0.9 0.00 0.02 0.00 91 1024.6
20260901150637 52 153 0.0 0.0 0.00 0.02 0.00 91 1024.7
20260901145908 52 153 0.0 0.0 0.00 0.02 0.00 91 1024.7
20260901145408 52 153 0.0 0.0 0.00 0.02 0.00 91 1024.7
20260901144902 52 153 0.0 0.0 0.00 0.02 0.00 91 1024.8
20260901144400 52 153 0.0 0.0 0.00 0.02 0.00 91 1024.8
20260901144120 52 153 0.0 0.9 0.00 0.02 0.00 91 1024.9
20260901143400 52 153 0.0 0.0 0.00 0.02 0.00 91 1024.9
20260901142836 53 153 0.0 0.9 0.01 0.02 0.00 90 1025.0
20260901142333 53 153 0.0 0.0 0.01 0.02 0.00 90 1025.1
20260901141831 53 153 0.0 0.0 0.01 0.02 0.00 90 1025.1
20260901141330 53 153 0.0 0.0 0.01 0.02 0.00 90 1025.1
20260901141052 53 153 0.0 0.9 0.01 0.02 0.00 90 1025.2
20260901140326 53 153 0.0 0.9 0.01 0.02 0.00 90 1025.2
20260901135824 53 153 0.0 0.0 0.01 0.02 0.02 90 1025.3
20260901135548 53 153 0.0 0.0 0.01 0.02 0.02 90 1025.3
20260901134822 53 153 0.0 0.0 0.01 0.02 0.02 90 1025.4
20260901134318 53 153 0.0 0.0 0.01 0.02 0.02 90 1025.4
20260901133818 53 153 0.0 0.0 0.01 0.02 0.02 90 1025.5
20260901133538 53 153 0.0 0.0 0.00 0.01 0.01 90 1025.5
20260901132807 53 153 0.0 0.0 0.00 0.01 0.01 90 1025.5
20260901132307 54 153 0.0 0.9 0.00 0.01 0.01 90 1025.6
20260901131811 54 153 0.0 0.9 0.00 0.01 0.01 90 1025.6
20260901131302 54 153 0.0 0.0 0.00 0.01 0.01 89 1025.6
20260901130800 54 153 0.0 0.0 0.00 0.01 0.01 89 1025.7
20260901130258 54 153 0.0 0.0 0.00 0.01 0.01 89 1025.7
20260901125756 54 153 0.0 0.9 0.00 0.01 0.01 89 1025.6
20260901125253 54 153 0.0 0.9 0.00 0.01 0.01 89 1025.7
20260901124752 54 153 0.0 0.9 0.00 0.01 0.01 89 1025.7
20260901124250 54 153 0.0 0.9 0.00 0.01 0.01 89 1025.7
20260901123747 54 153 0.0 0.0 0.00 0.01 0.01 89 1025.7
20260901123247 55 153 0.0 0.0 0.00 0.01 0.01 88 1025.6
20260901122744 55 153 0.0 0.0 0.00 0.01 0.01 88 1025.6
20260901122242 55 153 0.0 0.0 0.00 0.01 0.01 88 1025.6
20260901121735 55 153 0.0 0.0 0.00 0.01 0.01 88 1025.7
20260901121718 55 153 0.0 0.0 0.00 0.01 0.01 88 1025.7
20260901120731 55 153 0.0 0.0 0.00 0.01 0.01 88 1025.7
20260901120234 55 153 0.0 0.0 0.00 0.01 0.01 88 1025.8
20260901115709 55 153 0.0 0.0 0.00 0.01 0.01 88 1025.8
20260901115209 55 153 0.0 0.9 0.00 0.01 0.01 88 1025.7
20260901114658 56 153 0.0 0.9 0.00 0.01 0.01 88 1025.7
20260901114155 56 153 0.0 0.9 0.00 0.01 0.01 88 1025.7
20260901113654 56 153 0.0 0.9 0.00 0.01 0.01 88 1025.8
20260901113151 56 153 0.0 0.9 0.00 0.01 0.01 88 1025.8
20260901112704 56 153 0.0 0.9 0.00 0.01 0.01 87 1025.8
20260901112147 56 153 0.0 0.0 0.00 0.01 0.01 87 1025.9
20260901111646 56 153 0.0 1.7 0.00 0.01 0.01 87 1025.9
20260901111144 56 153 0.0 1.7 0.00 0.01 0.01 87 1025.9
20260901110642 57 153 0.0 1.7 0.00 0.01 0.01 86 1025.9
20260901110418 57 153 0.9 1.7 0.00 0.01 0.01 86 1025.8
20260901105634 57 64 0.0 1.7 0.00 0.01 0.01 86 1025.8
20260901105132 57 65 0.0 0.0 0.00 0.01 0.01 86 1025.8
20260901104629 57 65 0.0 0.0 0.00 0.01 0.01 86 1025.8
20260901104132 57 65 0.0 0.0 0.00 0.01 0.01 85 1025.8
20260901103825 58 65 0.0 0.0 0.00 0.01 0.01 85 1025.9